Weather in Selikhino

Russia / Khabarovsk Krai     50°22′01″N   137°30′06″E
temp.,
°C
wind,
m/s
gust,
m/s
humid.,
%
clouds,
%
prec.,
mm/h
press.,
hPa
HPBL,
m
27 february, sat
sat2701:00−18s4796100 0.1 1032245
04:00−19s4996100 0.2 1032325
07:00−20s4996100 0.1 1033281
10:00−18s61090100 0.1 1032502
13:00−14ssw61187100 0.0 1029637
16:00−12ssw71384100 0.0 1026658
19:00−13s51188100 0.0 1025407
22:00−12s4890100 0.1 1022274
28 february, sun
sun2801:00−12s3793100 0.2 1018251
04:00−11ssw71593100 1.0 1014686
07:00−10ssw41393100 0.3 1013687
10:00−9sw61292100 0.6 1012766
13:00−7wsw61089100 0.3 1012828
16:00−7wsw3788100 0.5 1011736
19:00−8sw2389100 0.3 101490
22:00−12wnw0293100 0.8 101785
1 march, mon
mon101:00−15nne0275100 0.1 101937
04:00−17s3385100 0.1 102260
07:00−19s4894100 0.1 1024376
10:00−18ssw5990100 0.1 1025674
13:00−17ssw6987100 0.1 1024829
16:00−15sw5783100 0.3 1024787
19:00−18n1195100 0.1 102620
22:00−18se3492100 0.3 1027148
2 march, tue
tue201:00−22se349246 0.0 102861
04:00−23sse379264 0.1 1029200
07:00−25sse479187 0.0 1031143
10:00−22ssw588743 0.0 1030453
13:00−19sw46808 0.0 1029685
16:00−18ssw458141 0.0 1028593
19:00−22s339316 0.0 102933
22:00−23sse339350 0.0 103044
3 march, wed
wed301:00−23sse479598 0.0 1029133
04:00−24s479593 0.0 1028160
07:00−24sse489296 0.0 1028182
10:00−20ssw6118597 0.0 1026476
13:00−15ssw61273100 0.0 1022779
16:00−12ssw61270100 0.0 1018967
19:00−15ssw3987100 0.0 1016272
22:00−14s51186100 0.0 1016351